Weather in Partizanskiy

Russia / Orenburg Oblast     53°00′00″N   52°08′05″E
temp.,
°C
wind,
m/s
gust,
m/s
humid.,
%
clouds,
%
prec.,
mm/h
press.,
hPa
HPBL,
m
3 march, wed
wed323:00−2sw51296100 3.3 1004741
02:00−2sw3997100 0.8 1003421
05:00−2sw2598100 1.9 1002237
08:00−3wnw2298100 0.7 100166
11:00−1wnw2395100 0.7 1002238
14:00−1wnw359997 0.1 1003489
17:00−2wnw479197 0.2 1003691
20:00−5wnw41091100 0.1 1004490
4 march, thu
thu423:00−7w4109599 0.2 1006368
02:00−7wnw4109498 0.2 1007470
05:00−10w399698 0.3 1008260
08:00−13wsw3798100 0.1 1008189
11:00−8sw499296 0.1 1008424
14:00−5sw6119296 0.1 1006619
17:00−4sw7139098 0.4 1004921
20:00−1wsw71696100 1.9 10021179
5 march, fri
fri523:00+1wsw71488100 2.4 10031078
02:000wsw61297100 0.4 1003908
05:00−1wsw51296100 1.3 1004732
08:00−2sw51296100 0.7 1003624
11:00−1sw61297100 3.2 1002797
14:000sw512100100 1.8 1001826
17:00+1wsw61499100 4.4 1002831
20:000wnw61097100 1.3 1004700
6 march, sat
sat623:00−8nw389492 0.9 1010231
02:00−14nnw239260 0.0 101361
05:00−15nne128880 0.0 101520
08:00−15ene2288100 0.0 101535
11:00−11e3584100 0.0 1014234
14:00−9e3588100 0.1 1011306
17:00−8ne3594100 0.5 1010317
20:00−9n2496100 0.6 1009157
7 march, sun
sun723:00−11nw229698 0.7 101047
02:00−15wnw339333 0.0 101184
05:00−16w379944 0.0 1012153
08:00−16wnw3998100 0.0 1013223
11:00−14wnw3695100 0.1 1015314
14:00−11w368794 0.0 1016595
17:00−11sw358662 0.0 1015501
20:00−16s36931 0.0 101597